Hourly Weather Bárna

Today, 25 September, Friday

Time Temperature Precipitation Wind Pressure Humidity
00:00 +15°C° 0 mm 1 mps 717 mmHg 79%
01:00 +15°C° 0 mm 1 mps 717 mmHg 81%
02:00 +15°C° 0 mm 1 mps 716 mmHg 82%
03:00 +14°C° 0 mm 1 mps 716 mmHg 82%
04:00 +14°C° 0 mm 1 mps 715 mmHg 83%
05:00 +15°C° 0.1 mm 1 mps 715 mmHg 82%
06:00 +15°C° 0.1 mm 1 mps 714 mmHg 80%
07:00 +16°C° 0.1 mm 1 mps 714 mmHg 79%
08:00 +17°C° 0 mm 2 mps 714 mmHg 73%
09:00 +18°C° 0 mm 3 mps 713 mmHg 67%
10:00 +19°C° 0 mm 4 mps 713 mmHg 62%
11:00 +19°C° 0.7 mm 4 mps 713 mmHg 69%
12:00 +18°C° 0.7 mm 3 mps 712 mmHg 76%
13:00 +17°C° 0.7 mm 3 mps 712 mmHg 83%
14:00 +17°C° 0.4 mm 3 mps 711 mmHg 84%
15:00 +17°C° 0.4 mm 2 mps 711 mmHg 86%
16:00 +17°C° 0.4 mm 2 mps 710 mmHg 87%
17:00 +16°C° 1 mm 2 mps 710 mmHg 90%
18:00 +16°C° 1 mm 2 mps 710 mmHg 92%
19:00 +15°C° 1 mm 2 mps 709 mmHg 95%
20:00 +15°C° 0.8 mm 2 mps 709 mmHg 95%
21:00 +15°C° 0.8 mm 2 mps 708 mmHg 95%
22:00 +14°C° 0.8 mm 3 mps 708 mmHg 95%
23:00 +14°C° 0.8 mm 3 mps 707 mmHg 94%

Tomorrow, 26 September, Saturday

Time Temperature Precipitation Wind Pressure Humidity
00:00 +14°C° 0.8 mm 4 mps 706 mmHg 93%
01:00 +14°C° 0.8 mm 4 mps 706 mmHg 92%
02:00 +14°C° 0.9 mm 4 mps 705 mmHg 92%
03:00 +14°C° 0.9 mm 5 mps 705 mmHg 92%
04:00 +15°C° 0.9 mm 5 mps 705 mmHg 92%
05:00 +13°C° 1.1 mm 4 mps 705 mmHg 92%
06:00 +12°C° 1.1 mm 3 mps 705 mmHg 92%
07:00 +10°C° 1.1 mm 2 mps 706 mmHg 91%
08:00 +12°C° 0 mm 2 mps 707 mmHg 87%
09:00 +12°C° 0 mm 2 mps 707 mmHg 82%
10:00 +12°C° 0 mm 3 mps 708 mmHg 77%
11:00 +14°C° 0 mm 2 mps 708 mmHg 70%
12:00 +15°C° 0 mm 2 mps 708 mmHg 63%
13:00 +16°C° 0 mm 2 mps 709 mmHg 57%
14:00 +15°C° 0 mm 2 mps 709 mmHg 59%
15:00 +15°C° 0 mm 2 mps 709 mmHg 61%
16:00 +14°C° 0 mm 2 mps 709 mmHg 63%
17:00 +13°C° 0 mm 2 mps 709 mmHg 67%
18:00 +12°C° 0 mm 2 mps 709 mmHg 70%
19:00 +10°C° 0 mm 2 mps 709 mmHg 74%
20:00 +10°C° 0 mm 2 mps 709 mmHg 75%
21:00 +9°C° 0 mm 2 mps 710 mmHg 75%
22:00 +10°C° 0 mm 1 mps 710 mmHg 75%
23:00 +9°C° 0 mm 2 mps 710 mmHg 75%

Day after tomorrow, 27 September, Sunday

Time Temperature Precipitation Wind Pressure Humidity
00:00 +8°C° 0 mm 2 mps 710 mmHg 75%
01:00 +8°C° 0 mm 3 mps 710 mmHg 75%
02:00 +8°C° 0 mm 3 mps 711 mmHg 75%
03:00 +7°C° 0 mm 3 mps 711 mmHg 76%
04:00 +7°C° 0 mm 3 mps 711 mmHg 76%
05:00 +7°C° 0 mm 3 mps 711 mmHg 75%
06:00 +6°C° 0 mm 4 mps 712 mmHg 74%
07:00 +6°C° 0 mm 4 mps 712 mmHg 74%
08:00 +8°C° 0 mm 4 mps 713 mmHg 67%
09:00 +10°C° 0 mm 4 mps 713 mmHg 61%
10:00 +12°C° 0 mm 5 mps 714 mmHg 55%
11:00 +12°C° 0 mm 5 mps 714 mmHg 52%
12:00 +13°C° 0 mm 5 mps 714 mmHg 50%
13:00 +14°C° 0 mm 5 mps 714 mmHg 48%
14:00 +13°C° 0 mm 4 mps 715 mmHg 50%
15:00 +13°C° 0 mm 4 mps 715 mmHg 51%
16:00 +12°C° 0 mm 3 mps 715 mmHg 52%
17:00 +12°C° 0 mm 2 mps 715 mmHg 57%
18:00 +10°C° 0 mm 1 mps 716 mmHg 63%
19:00 +8°C° 0 mm 0 mps 716 mmHg 68%
20:00 +8°C° 0 mm 0 mps 717 mmHg 69%
21:00 +7°C° 0 mm 0 mps 717 mmHg 70%
22:00 +8°C° 0 mm 1 mps 718 mmHg 71%
23:00 +8°C° 0 mm 1 mps 718 mmHg 73%

28 September, Monday

Time Temperature Precipitation Wind Pressure Humidity
00:00 +7°C° 0 mm 1 mps 718 mmHg 74%
01:00 +7°C° 0 mm 1 mps 718 mmHg 75%
02:00 +7°C° 0 mm 1 mps 718 mmHg 76%
03:00 +7°C° 0 mm 1 mps 718 mmHg 77%
04:00 +7°C° 0 mm 1 mps 718 mmHg 78%
05:00 +7°C° 0 mm 1 mps 719 mmHg 77%
06:00 +7°C° 0 mm 1 mps 719 mmHg 76%
07:00 +8°C° 0 mm 1 mps 719 mmHg 75%
08:00 +10°C° 0 mm 1 mps 719 mmHg 69%
09:00 +12°C° 0 mm 2 mps 719 mmHg 64%
10:00 +14°C° 0 mm 2 mps 719 mmHg 58%
11:00 +15°C° 0 mm 2 mps 719 mmHg 56%
12:00 +15°C° 0 mm 2 mps 719 mmHg 54%
13:00 +16°C° 0 mm 2 mps 719 mmHg 53%
14:00 +16°C° 0 mm 2 mps 718 mmHg 55%
15:00 +15°C° 0 mm 1 mps 718 mmHg 57%
16:00 +15°C° 0 mm 1 mps 718 mmHg 59%
17:00 +13°C° 0 mm 1 mps 718 mmHg 65%
18:00 +12°C° 0 mm 1 mps 718 mmHg 71%
19:00 +9°C° 0 mm 0 mps 718 mmHg 77%
20:00 +9°C° 0 mm 0 mps 718 mmHg 81%
21:00 +8°C° 0 mm 0 mps 718 mmHg 84%
22:00 +8°C° 0 mm 0 mps 718 mmHg 88%
23:00 +8°C° 0 mm 0 mps 718 mmHg 89%

29 September, Tuesday

Time Temperature Precipitation Wind Pressure Humidity
00:00 +7°C° 0 mm 0 mps 718 mmHg 91%
01:00 +7°C° 0 mm 0 mps 718 mmHg 93%
02:00 +9°C° 0 mm 1 mps 718 mmHg 92%
03:00 +9°C° 0 mm 1 mps 718 mmHg 91%
04:00 +9°C° 0 mm 1 mps 717 mmHg 90%
05:00 +9°C° 0.1 mm 1 mps 718 mmHg 90%
06:00 +9°C° 0.1 mm 2 mps 718 mmHg 89%
07:00 +9°C° 0.1 mm 2 mps 718 mmHg 88%
08:00 +10°C° 0 mm 3 mps 718 mmHg 84%
09:00 +12°C° 0 mm 4 mps 718 mmHg 80%
10:00 +13°C° 0 mm 5 mps 718 mmHg 75%
11:00 +14°C° 0.1 mm 6 mps 718 mmHg 69%
12:00 +15°C° 0.1 mm 6 mps 718 mmHg 62%
13:00 +16°C° 0.1 mm 6 mps 718 mmHg 56%
14:00 +15°C° 0 mm 6 mps 719 mmHg 57%
15:00 +15°C° 0 mm 6 mps 719 mmHg 59%
16:00 +14°C° 0 mm 5 mps 719 mmHg 60%
17:00 +13°C° 0 mm 5 mps 719 mmHg 65%
18:00 +12°C° 0 mm 4 mps 719 mmHg 70%
19:00 +11°C° 0 mm 4 mps 719 mmHg 75%
20:00 +10°C° 0 mm 4 mps 720 mmHg 79%
21:00 +9°C° 0 mm 3 mps 720 mmHg 82%
22:00 +8°C° 0 mm 3 mps 720 mmHg 86%
23:00 +8°C° 0 mm 2 mps 720 mmHg 88%

30 September, Wednesday

Time Temperature Precipitation Wind Pressure Humidity
00:00 +7°C° 0 mm 2 mps 720 mmHg 89%
01:00 +7°C° 0 mm 2 mps 720 mmHg 91%
02:00 +7°C° 0 mm 2 mps 719 mmHg 91%
03:00 +7°C° 0 mm 2 mps 719 mmHg 92%
04:00 +7°C° 0 mm 1 mps 719 mmHg 92%
05:00 +8°C° 0 mm 1 mps 719 mmHg 90%
06:00 +8°C° 0 mm 1 mps 719 mmHg 88%
07:00 +9°C° 0 mm 1 mps 719 mmHg 86%
08:00 +10°C° 0 mm 2 mps 719 mmHg 75%
09:00 +13°C° 0 mm 2 mps 720 mmHg 64%
10:00 +14°C° 0 mm 3 mps 720 mmHg 54%
11:00 +16°C° 0 mm 3 mps 719 mmHg 51%
12:00 +17°C° 0 mm 4 mps 719 mmHg 48%
13:00 +18°C° 0 mm 4 mps 719 mmHg 45%
14:00 +17°C° 0 mm 4 mps 718 mmHg 48%
15:00 +17°C° 0 mm 4 mps 718 mmHg 50%
16:00 +15°C° 0 mm 4 mps 717 mmHg 52%
17:00 +13°C° 0 mm 4 mps 717 mmHg 59%
18:00 +12°C° 0 mm 3 mps 717 mmHg 65%
19:00 +10°C° 0 mm 3 mps 717 mmHg 72%
20:00 +10°C° 0 mm 3 mps 717 mmHg 75%
21:00 +9°C° 0 mm 3 mps 717 mmHg 79%
22:00 +9°C° 0 mm 3 mps 717 mmHg 82%
23:00 +9°C° 0 mm 3 mps 716 mmHg 85%
Show more